Location: Unspecified
(0.0000°N, 0.0000°E)
Time: 13:03:03
(UTC+00:00)

Vanguard 1 - Pass Details

Date: 14 December 2018
Orbit: 653 x 3830 km, 34.3° (Epoch: 15 July)

Event Time Altitude Azimuth Distance (km) Brightness Sun altitude
Rises 18:24:35 0° 265° (W) 7,624 16.2 -6.8°
Reaches altitude 10° 18:31:25 10° 253° (WSW) 6,838 16.0 -8.4°
Maximum altitude 18:48:52 25° 205° (SSW) 5,551 14.5 -12.4°
Drops below altitude 10° 19:04:16 10° 155° (SSE) 5,942 14.0 -15.9°
Sets 19:09:43 0° 141° (SE) 6,488 14.1 -17.2°
